Regional Weather Roundup
Issued by NWS

Home | Current Version | Previous Version | Graphics & Text | Print | Product List | Glossary On
Versions: 1 2 3 4 5 6 7 8 9 10 11 12 13 14 15 16 17 18 19 20 21 22 23 24 25 26 27 28 29 30 31 32 33 34 35 36 37 38 39 40 41 42 43 44 45 46 47 48 49 50
000
ASUS43 KLSX 282210
RWRMO

WEATHER SUMMARY FOR MISSOURI
NATIONAL WEATHER SERVICE SPRINGFIELD MO
500 PM CDT SUN MAY 28 2017

NOTE: "FAIR" INDICATES FEW OR NO CLOUDS BELOW 12,000 FEET WITH NO
       SIGNIFICANT WEATHER AND/OR OBSTRUCTIONS TO VISIBILITY.
       CURRENT SKY AND/OR WEATHER CONDITIONS ARE NOT AVAILABLE FOR
       CHILLICOTHE AND FARMINGTON.

MOZ001>031-035>038-043-044-053-054-282300-
...NORTHERN AND WESTERN MISSOURI...

CITY           SKY/WX    TMP DP  RH WIND       PRES   REMARKS
KANSAS CTY INT MOSUNNY   79  51  37 W10       29.94S
KANSAS C DTWN  MOSUNNY   81  47  30 W14       29.92S
LEE`S SUMMIT   MOSUNNY   80  54  40 W8        29.94S
ST JOSEPH      SUNNY     82  45  27 W8        29.91F
CHILLICOTHE      N/A     80  51  36 VRB6      29.90S
KIRKSVILLE     SUNNY     79  47  32 NW13G22   29.88R

$$
MOZ066>068-077>081-088>096-101>105-282300-
...SOUTHWEST MISSOURI...

CITY           SKY/WX    TMP DP  RH WIND       PRES   REMARKS
SPRINGFIELD    MOSUNNY   77  55  46 W12       29.97F
JOPLIN         MOSUNNY   81  58  45 W9G21     29.98F
BRANSON        MOSUNNY   75  57  53 W12       29.99S

$$
MOZ032>034-039>042-045>050-055>058-069>072-282300-
...CENTRAL MISSOURI...

CITY           SKY/WX    TMP DP  RH WIND       PRES   REMARKS
COLUMBIA       MOSUNNY   78  56  46 W12G22    29.91S
JEFFERSON CITY SUNNY     80  53  39 W16       29.90S
ROLLA          MOSUNNY   75  57  53 W15       29.92R
SEDALIA        MOSUNNY   80  59  48 W8G18     29.93S
WHITEMAN AFB   SUNNY     80  51  35 NW13      29.91S
WARRENSBURG    MOSUNNY   79  50  36 W15       29.92S
OSAGE BEACH    SUNNY     77  56  48 W10       29.94S

$$
MOZ051-052-059>065-282300-
...EAST CENTRAL MISSOURI...

CITY           SKY/WX    TMP DP  RH WIND       PRES   REMARKS
ST LOUIS INTL  MOSUNNY   81  57  43 NW15G22   29.87R
SPIRIT OF STL  MOSUNNY   79  58  48 W12G20    29.87R
ST CHARLES     SUNNY     81  53  37 W17       29.86R

$$
MOZ072>076-082>087-097>100-106>115-282300-
...SOUTH CENTRAL AND SOUTHEAST MISSOURI...

CITY           SKY/WX    TMP DP  RH WIND       PRES   REMARKS
CAPE GIRARDEAU CLOUDY    76  66  71 W6        29.87R
FARMINGTON     MOSUNNY   76  63  64 W9        29.91S
POPLAR BLUFF   CLOUDY    77  68  73 VRB5      29.88R
WEST PLAINS    MOSUNNY   78  60  53 NW10G18   29.96R

$$



USA.gov is the U.S. government's official web portal to all federal, state and local government web resources and services.